STARLINK-30456, 57943

Orbit data source: Space-Track

STARLINK-30456, 57943 is a payload satellite owned by SpaceX/Seattle (US) in LEO that was launched on Mon, 25 Sep 2023 UTC via an FALCON 9 launch vehicle from the Air Force Western Test Range (AFWTR). Payload-class satellites include a variety of spacecraft equipped with specific instruments for various scientific and technological missions. These include communications satellites like Starlink; space stations such as the ISS; scientific satellites like the Hubble; Earth observation satellites from companies like Planet Labs, Umbra, and HawkEye 360; GPS; miniature CubeSats for education and research; and military/defense satellites.

Loading next visibility...
Identifier
57943, 2023-148J
Orbit
LEO
Country
Flag of USUS
Related business
Manufacturer
SpaceX/Seattle
Mission
Operational Commercial Communications
Bus & Motor
STARLINK V2M, Unknown motor
Mass
730 kg wet, ~700 kg dry
Launch date (UTC)
2023-09-25 (3 years ago)
Launch vehicle
FALCON 9
Launch site
Air Force Western Test Range (AFWTR)
Object type
Payload
Rocket body
Debris
Shape & HBR
Box + 2 Pan, 17.7 m
Radar Cross Section
33.884 m², Large (>1 m²)

Expand to show TLE details & history
Last TLE update: 2 days ago

TLE from 2 days ago
0 STARLINK-30456
1 57943U 23148J   26171.45603551 -.00000067  00000-0  98716-5 0  9992
2 57943  53.1583 267.1332 0001212  85.4651 274.6489 15.30189861154152
Epoch: 2026-06-20T10:56Z
TLE epoch observation values (Epoch: 2026-06-20T10:56:41.468Z)
Latitude
0.00007°
Longitude
-165.70994°
Altitude
476.078 km
Speed
7.629 km/s
True Right ascension
17h 48m 31s
True Declination
0° 00' 00"
Sunlit
Object was in full shadow at epoch
Visualization orbit readout
Latitude
Unknown
Longitude
Unknown
Altitude
Unknown
Speed
Unknown
Apparent Right ascension
Unknown
Apparent Declination
Unknown
Sunlit
N/A
Visualization observer readout
Local Sidereal Time
00:33:49
Azimuth
Unknown
Elevation
Unknown
Doppler factor
Unknown
Orbital elements
Apogee altitude
476.333 km
Perigee altitude
474.671 km
Semi-major axis
6,853.639 km
Eccentricity
0.00012
Inclination
53.1583°
RAAN
267.1332°
Arg. of periapsis
85.4651°
True anomaly
274.63506°
Mean anomaly
274.6489°
Eccentric anomaly
274.64198°
Mean motion
3.82526 °/min
Orbital period
94.11 mins
BSTAR
0.0000098716
Loading maneuver chart data...
Computing Atmospheric mass density...
Loading historical data...
Loading historical data...
Loading historical data...
Loading historical data...
Loading historical data...
Loading historical data...
Loading historical data...

Documentation

Showing up to 5 results
|